Погода в Ереване

Армения     40°10′39″N   44°30′45″E
В апреле 2022 года жителям России запретили посещать сайт meteo.paraplan.net по решению Генеральной прокуратуры. Аудитория сайта уменьшилась в 10 раз. Владельцы сайта не видят смысла в поддержке погодного сервера в таких условиях. Сайт будет закрыт в октябре.
темп.,
°C
ветер,
м/с
пор.,
м/с
влажн.,
%
обл.,
%
осадки,
мм/ч
давл.,
гПа
погр.,
м
3 октября, пн
пн301:00+17св4438100 0.0 101089
04:00+17св2333100 0.0 100962
07:00+15св233475 0.0 100951
10:00+21з1124100 0.0 1009490
13:00+25ююз2319100 0.0 10081303
16:00+26ююз121752 0.0 10071308
19:00+22всв112275 0.0 100711
22:00+20ссв573399 0.0 1010173
4 октября, вт
вт401:00+19св343780 0.0 101195
04:00+17св33380 0.0 101263
07:00+16св22380 0.0 101344
10:00+22з11264 0.0 1014555
13:00+26ююз33200 0.0 10131540
16:00+28ю33160 0.0 10111982
19:00+23ююв11225 0.0 101314
22:00+20св33230 0.0 101571
5 октября, ср
ср501:00+19св33230 0.0 101742
04:00+18св33250 0.0 101847
07:00+17св33270 0.0 101945
10:00+23зюз21185 0.0 1019550
13:00+27юз231440 0.0 10171429
16:00+28ю1314100 0.0 10153008
19:00+24св0017100 0.0 101511
22:00+22св332090 0.0 101656
6 октября, чт
чт601:00+20св332218 0.0 101771
04:00+18св332554 0.0 101766
07:00+17св33288 0.0 101867
10:00+23зсз01195 0.0 1017500
13:00+27ююз231443 0.0 10141356
16:00+29зюз34128 0.0 10122447
19:00+24св111696 0.0 101212
22:00+18ссв812505 0.0 1016301
7 октября, пт
пт701:00+16ссв69545 0.0 1017253
04:00+15ссв47561 0.0 1018189
07:00+14ссв35610 0.0 1018132
10:00+20вюв02420 0.0 1018733
13:00+24ююз43290 0.0 10161194
16:00+25ююз32250 0.0 10131375
19:00+20св57460 0.0 1015279
22:00+17ссв711566 0.0 1017292